| time (UTC) | temp F | wind direction | speed knots | gust knots | rain 1hr in | rain 24hr in | rain mn in | humidity % | barometer mb |
| 20260505065043 | 53 | 0 | 0.0 | 2.6 | 0.00 | 0.00 | 0.00 | 90 | 1014.4 |
| 20260505064558 | 53 | 169 | 0.0 | 2.6 | 0.00 | 0.00 | 0.00 | 90 | 1014.5 |
| 20260505064043 | 53 | 0 | 0.0 | 1.7 | 0.00 | 0.00 | 0.00 | 90 | 1014.5 |
| 20260505063545 | 53 | 0 | 0.0 | 1.7 | 0.00 | 0.00 | 0.00 | 91 | 1014.5 |
| 20260505063101 | 53 | 0 | 0.0 | 0.0 | 0.00 | 0.00 | 0.00 | 90 | 1014.4 |
| 20260505062543 | 53 | 0 | 0.0 | 0.0 | 0.00 | 0.00 | 0.00 | 90 | 1014.4 |
| 20260505062043 | 53 | 0 | 0.0 | 0.0 | 0.00 | 0.00 | 0.00 | 90 | 1014.5 |
| 20260505061557 | 54 | 0 | 0.0 | 0.0 | 0.00 | 0.00 | 0.00 | 89 | 1014.4 |
| 20260505061045 | 54 | 0 | 0.0 | 0.0 | 0.00 | 0.00 | 0.00 | 89 | 1014.4 |
| 20260505060545 | 54 | 0 | 0.0 | 0.0 | 0.00 | 0.00 | 0.00 | 89 | 1014.6 |
| 20260505060054 | 54 | 0 | 0.0 | 0.0 | 0.00 | 0.00 | 0.00 | 89 | 1014.6 |
| 20260505055544 | 54 | 0 | 0.0 | 0.9 | 0.00 | 0.00 | 0.00 | 89 | 1014.6 |
| 20260505055046 | 54 | 0 | 0.0 | 0.9 | 0.00 | 0.00 | 0.00 | 88 | 1014.6 |
| 20260505054551 | 54 | 0 | 0.0 | 0.9 | 0.00 | 0.00 | 0.00 | 88 | 1014.5 |
| 20260505054044 | 54 | 148 | 0.0 | 0.9 | 0.00 | 0.00 | 0.00 | 88 | 1014.6 |
| 20260505053543 | 54 | 0 | 0.0 | 0.0 | 0.00 | 0.00 | 0.00 | 87 | 1014.6 |
| 20260505053114 | 54 | 0 | 0.0 | 0.9 | 0.00 | 0.00 | 0.00 | 87 | 1014.6 |
| 20260505052543 | 54 | 0 | 0.0 | 2.6 | 0.00 | 0.00 | 0.00 | 87 | 1014.5 |
| 20260505052044 | 54 | 0 | 0.0 | 3.5 | 0.00 | 0.00 | 0.00 | 87 | 1014.5 |
| 20260505051552 | 54 | 200 | 0.9 | 3.5 | 0.00 | 0.00 | 0.00 | 87 | 1014.5 |
| 20260505051043 | 54 | 232 | 0.0 | 3.5 | 0.00 | 0.00 | 0.00 | 87 | 1014.5 |
| 20260505050543 | 54 | 0 | 0.0 | 3.5 | 0.00 | 0.00 | 0.00 | 87 | 1014.7 |
| 20260505050110 | 54 | 217 | 0.0 | 1.7 | 0.00 | 0.00 | 0.00 | 87 | 1014.5 |
| 20260505041554 | 54 | 0 | 0.0 | 0.9 | 0.00 | 0.00 | 0.00 | 87 | 1014.3 |
| 20260505041046 | 54 | 0 | 0.0 | 0.9 | 0.00 | 0.00 | 0.00 | 87 | 1014.3 |
| 20260505040541 | 54 | 279 | 0.0 | 1.7 | 0.00 | 0.00 | 0.00 | 87 | 1014.2 |
| 20260505040050 | 54 | 0 | 0.0 | 2.6 | 0.00 | 0.00 | 0.00 | 87 | 1014.1 |
| 20260505035540 | 55 | 271 | 0.0 | 2.6 | 0.00 | 0.00 | 0.00 | 86 | 1013.9 |
| 20260505035040 | 55 | 0 | 0.0 | 2.6 | 0.00 | 0.00 | 0.00 | 87 | 1013.9 |
| 20260505034612 | 55 | 0 | 0.0 | 0.9 | 0.00 | 0.00 | 0.00 | 86 | 1013.9 |
| 20260505034044 | 55 | 0 | 0.0 | 0.9 | 0.00 | 0.00 | 0.00 | 86 | 1013.8 |
| 20260505033544 | 55 | 0 | 0.0 | 0.9 | 0.00 | 0.00 | 0.00 | 86 | 1013.8 |
| 20260505033053 | 55 | 286 | 0.0 | 2.6 | 0.00 | 0.00 | 0.00 | 86 | 1013.8 |
| 20260505032543 | 55 | 303 | 0.0 | 2.6 | 0.00 | 0.00 | 0.00 | 86 | 1013.8 |
| 20260505032043 | 55 | 0 | 0.0 | 1.7 | 0.00 | 0.00 | 0.00 | 86 | 1013.7 |
| 20260505031549 | 55 | 0 | 0.0 | 1.7 | 0.00 | 0.00 | 0.00 | 86 | 1013.7 |
| 20260505031043 | 55 | 301 | 0.0 | 1.7 | 0.00 | 0.00 | 0.00 | 86 | 1013.7 |
| 20260505030544 | 55 | 171 | 0.0 | 2.6 | 0.00 | 0.00 | 0.00 | 86 | 1013.6 |
| 20260505030051 | 55 | 0 | 0.0 | 2.6 | 0.00 | 0.00 | 0.00 | 85 | 1013.6 |
| 20260505025542 | 55 | 209 | 0.0 | 1.7 | 0.00 | 0.00 | 0.00 | 85 | 1013.5 |
| 20260505025041 | 55 | 281 | 0.0 | 2.6 | 0.00 | 0.00 | 0.00 | 85 | 1013.5 |
| 20260505024544 | 55 | 317 | 0.0 | 2.6 | 0.00 | 0.00 | 0.00 | 85 | 1013.5 |
| 20260505024043 | 55 | 279 | 0.0 | 2.6 | 0.00 | 0.00 | 0.00 | 85 | 1013.4 |
| 20260505023541 | 55 | 0 | 0.0 | 1.7 | 0.00 | 0.00 | 0.00 | 85 | 1013.5 |
| 20260505023048 | 56 | 279 | 0.0 | 1.7 | 0.00 | 0.00 | 0.00 | 85 | 1013.5 |
| 20260505022546 | 56 | 22 | 0.0 | 1.7 | 0.00 | 0.00 | 0.00 | 85 | 1013.5 |
| 20260505022043 | 56 | 321 | 0.0 | 1.7 | 0.00 | 0.00 | 0.00 | 84 | 1013.5 |
| 20260505021551 | 56 | 0 | 0.0 | 2.6 | 0.00 | 0.00 | 0.00 | 85 | 1013.5 |
| 20260505021044 | 56 | 0 | 0.0 | 2.6 | 0.00 | 0.00 | 0.00 | 84 | 1013.5 |
| 20260505020544 | 56 | 201 | 0.9 | 3.5 | 0.00 | 0.00 | 0.00 | 84 | 1013.7 |
| 20260505020049 | 56 | 242 | 0.0 | 5.2 | 0.00 | 0.00 | 0.00 | 84 | 1013.7 |
| 20260505015541 | 56 | 186 | 0.9 | 5.2 | 0.00 | 0.00 | 0.00 | 84 | 1013.6 |
| 20260505015045 | 56 | 189 | 0.9 | 2.6 | 0.00 | 0.00 | 0.00 | 84 | 1013.6 |
| 20260505014549 | 57 | 152 | 0.0 | 2.6 | 0.00 | 0.00 | 0.00 | 84 | 1013.7 |
| 20260505014045 | 57 | 0 | 0.9 | 2.6 | 0.00 | 0.00 | 0.00 | 84 | 1013.8 |
| 20260505013540 | 57 | 303 | 0.0 | 3.5 | 0.00 | 0.00 | 0.00 | 84 | 1013.8 |
| 20260505013047 | 57 | 207 | 0.0 | 3.5 | 0.00 | 0.00 | 0.00 | 83 | 1013.8 |
| 20260505012544 | 57 | 188 | 0.0 | 3.5 | 0.00 | 0.00 | 0.00 | 83 | 1013.8 |
| 20260505012040 | 57 | 198 | 0.9 | 3.5 | 0.00 | 0.00 | 0.00 | 83 | 1013.8 |
| 20260505011605 | 57 | 251 | 0.0 | 3.5 | 0.00 | 0.00 | 0.00 | 83 | 1013.8 |
| 20260505011041 | 57 | 254 | 0.9 | 3.5 | 0.00 | 0.00 | 0.00 | 83 | 1013.9 |
| 20260505010540 | 57 | 236 | 0.0 | 4.3 | 0.00 | 0.00 | 0.00 | 83 | 1013.9 |
| 20260505010049 | 57 | 266 | 0.0 | 5.2 | 0.00 | 0.00 | 0.00 | 83 | 1013.8 |
| 20260505005540 | 57 | 0 | 0.9 | 5.2 | 0.00 | 0.00 | 0.00 | 83 | 1013.8 |
| 20260505005044 | 57 | 234 | 0.0 | 4.3 | 0.00 | 0.00 | 0.00 | 83 | 1013.9 |
| 20260505004547 | 57 | 225 | 0.9 | 3.5 | 0.00 | 0.00 | 0.00 | 83 | 1013.9 |
| 20260505004044 | 57 | 176 | 0.9 | 3.5 | 0.00 | 0.00 | 0.00 | 82 | 1013.9 |
| 20260505003547 | 57 | 315 | 0.9 | 4.3 | 0.00 | 0.00 | 0.00 | 83 | 1013.8 |
| 20260505003053 | 57 | 188 | 0.9 | 4.3 | 0.00 | 0.00 | 0.00 | 83 | 1013.9 |
| 20260505002544 | 58 | 159 | 0.0 | 3.5 | 0.00 | 0.00 | 0.00 | 82 | 1014.0 |
| 20260505002044 | 58 | 219 | 0.9 | 3.5 | 0.00 | 0.00 | 0.00 | 82 | 1014.1 |
| 20260505001558 | 58 | 272 | 0.9 | 3.5 | 0.00 | 0.00 | 0.00 | 82 | 1013.9 |
| 20260505001044 | 58 | 221 | 0.9 | 4.3 | 0.00 | 0.00 | 0.00 | 81 | 1014.0 |
| 20260505000544 | 58 | 234 | 0.9 | 4.3 | 0.00 | 0.00 | 0.00 | 81 | 1013.9 |
| 20260505000104 | 58 | 270 | 0.9 | 4.3 | 0.00 | 0.00 | 0.00 | 81 | 1014.1 |
| 20260504235543 | 58 | 273 | 0.9 | 4.3 | 0.00 | 0.00 | 0.00 | 81 | 1014.0 |
| 20260504235044 | 58 | 199 | 0.9 | 3.5 | 0.00 | 0.00 | 0.00 | 81 | 1014.1 |
| 20260504234555 | 59 | 329 | 0.9 | 4.3 | 0.00 | 0.00 | 0.00 | 80 | 1014.0 |
| 20260504234040 | 59 | 165 | 0.9 | 4.3 | 0.00 | 0.00 | 0.00 | 80 | 1014.0 |
| 20260504233544 | 59 | 223 | 0.9 | 4.3 | 0.00 | 0.00 | 0.00 | 80 | 1014.1 |
| 20260504233103 | 59 | 297 | 0.9 | 4.3 | 0.00 | 0.00 | 0.00 | 79 | 1014.0 |
| 20260504232544 | 59 | 285 | 0.9 | 3.5 | 0.00 | 0.00 | 0.00 | 79 | 1014.0 |
| 20260504232040 | 59 | 232 | 0.9 | 3.5 | 0.00 | 0.00 | 0.00 | 79 | 1013.9 |
| 20260504231549 | 59 | 232 | 0.9 | 4.3 | 0.00 | 0.00 | 0.00 | 79 | 1013.8 |
| 20260504231043 | 60 | 296 | 0.9 | 5.2 | 0.00 | 0.00 | 0.00 | 78 | 1014.0 |
| 20260504230541 | 60 | 195 | 0.9 | 5.2 | 0.00 | 0.00 | 0.00 | 79 | 1014.1 |
| 20260504230053 | 60 | 0 | 0.9 | 4.3 | 0.00 | 0.00 | 0.00 | 78 | 1014.1 |
| 20260504225547 | 60 | 227 | 0.9 | 5.2 | 0.00 | 0.00 | 0.00 | 78 | 1014.1 |
| 20260504225044 | 60 | 200 | 1.7 | 5.2 | 0.00 | 0.00 | 0.00 | 78 | 1014.2 |
| 20260504224552 | 60 | 124 | 0.9 | 3.5 | 0.00 | 0.00 | 0.00 | 78 | 1014.2 |
| 20260504224040 | 61 | 174 | 0.9 | 3.5 | 0.00 | 0.00 | 0.00 | 78 | 1014.2 |
| 20260504223540 | 61 | 0 | 1.7 | 3.5 | 0.00 | 0.00 | 0.00 | 78 | 1014.2 |
| 20260504223050 | 61 | 271 | 0.9 | 4.3 | 0.00 | 0.00 | 0.00 | 77 | 1014.1 |
| 20260504222546 | 61 | 221 | 0.9 | 4.3 | 0.00 | 0.00 | 0.00 | 77 | 1014.2 |
| 20260504222042 | 61 | 88 | 0.9 | 4.3 | 0.00 | 0.00 | 0.00 | 78 | 1014.2 |
| 20260504221546 | 61 | 231 | 0.9 | 3.5 | 0.00 | 0.00 | 0.00 | 77 | 1014.1 |
| 20260504221044 | 62 | 240 | 1.7 | 6.1 | 0.00 | 0.00 | 0.00 | 76 | 1014.1 |
| 20260504220544 | 62 | 221 | 0.9 | 6.1 | 0.00 | 0.00 | 0.00 | 77 | 1014.1 |
| 20260504220054 | 62 | 174 | 1.7 | 5.2 | 0.00 | 0.00 | 0.00 | 77 | 1014.1 |
| 20260504215544 | 62 | 223 | 1.7 | 4.3 | 0.00 | 0.00 | 0.00 | 76 | 1014.0 |
| 20260504215043 | 62 | 229 | 0.9 | 4.3 | 0.00 | 0.00 | 0.00 | 75 | 1014.1 |
| 20260504214552 | 62 | 219 | 0.9 | 4.3 | 0.00 | 0.00 | 0.00 | 77 | 1014.1 |
| 20260504214043 | 62 | 298 | 1.7 | 4.3 | 0.00 | 0.00 | 0.00 | 76 | 1014.2 |
| 20260504213543 | 62 | 248 | 1.7 | 4.3 | 0.00 | 0.00 | 0.00 | 76 | 1014.1 |
| 20260504213052 | 62 | 188 | 0.9 | 4.3 | 0.00 | 0.00 | 0.00 | 77 | 1014.1 |
| 20260504212544 | 62 | 205 | 0.9 | 5.2 | 0.00 | 0.00 | 0.00 | 77 | 1014.1 |
| 20260504212043 | 62 | 303 | 0.9 | 5.2 | 0.00 | 0.00 | 0.00 | 78 | 1014.2 |
| 20260504211552 | 61 | 244 | 1.7 | 4.3 | 0.00 | 0.00 | 0.00 | 78 | 1014.2 |
| 20260504211043 | 61 | 15 | 0.9 | 4.3 | 0.00 | 0.00 | 0.00 | 78 | 1014.1 |
| 20260504210544 | 61 | 286 | 0.9 | 4.3 | 0.00 | 0.00 | 0.00 | 78 | 1014.2 |
| 20260504210052 | 61 | 225 | 0.9 | 3.5 | 0.00 | 0.00 | 0.00 | 78 | 1014.4 |
| 20260504205544 | 61 | 233 | 0.9 | 3.5 | 0.00 | 0.00 | 0.00 | 79 | 1014.4 |
| 20260504205045 | 60 | 262 | 0.9 | 3.5 | 0.00 | 0.00 | 0.00 | 79 | 1014.4 |
| 20260504204551 | 60 | 228 | 0.9 | 2.6 | 0.00 | 0.00 | 0.00 | 79 | 1014.5 |
| 20260504204044 | 60 | 306 | 0.9 | 3.5 | 0.00 | 0.00 | 0.00 | 79 | 1014.5 |
| 20260504203544 | 60 | 51 | 0.9 | 4.3 | 0.00 | 0.00 | 0.00 | 80 | 1014.5 |
| 20260504203056 | 60 | 254 | 0.9 | 6.1 | 0.00 | 0.00 | 0.00 | 80 | 1014.5 |
| 20260504202544 | 60 | 281 | 0.9 | 6.1 | 0.00 | 0.00 | 0.00 | 80 | 1014.6 |
| 20260504202046 | 60 | 192 | 0.9 | 4.3 | 0.00 | 0.00 | 0.00 | 80 | 1014.6 |
| 20260504201549 | 60 | 304 | 1.7 | 4.3 | 0.00 | 0.00 | 0.00 | 80 | 1014.7 |
| 20260504201043 | 60 | 202 | 0.9 | 4.3 | 0.00 | 0.00 | 0.00 | 80 | 1014.7 |
| 20260504200543 | 60 | 314 | 0.9 | 4.3 | 0.00 | 0.00 | 0.00 | 80 | 1014.7 |
| 20260504200046 | 60 | 175 | 0.9 | 5.2 | 0.00 | 0.00 | 0.00 | 80 | 1014.7 |
| 20260504195543 | 60 | 297 | 0.9 | 5.2 | 0.00 | 0.00 | 0.00 | 80 | 1014.7 |
| 20260504195044 | 60 | 294 | 0.9 | 5.2 | 0.00 | 0.00 | 0.00 | 80 | 1014.8 |
| 20260504194601 | 60 | 217 | 0.9 | 2.6 | 0.00 | 0.00 | 0.00 | 80 | 1014.7 |
| 20260504194043 | 60 | 233 | 0.9 | 3.5 | 0.00 | 0.00 | 0.00 | 81 | 1014.6 |
| 20260504193544 | 60 | 275 | 0.9 | 3.5 | 0.00 | 0.00 | 0.00 | 81 | 1014.5 |
| 20260504193049 | 60 | 202 | 0.9 | 2.6 | 0.00 | 0.00 | 0.00 | 81 | 1014.7 |
| 20260504192545 | 59 | 239 | 0.9 | 3.5 | 0.00 | 0.00 | 0.00 | 81 | 1014.7 |
| 20260504192043 | 59 | 223 | 0.9 | 3.5 | 0.00 | 0.00 | 0.00 | 82 | 1014.7 |
| 20260504191607 | 59 | 175 | 0.9 | 3.5 | 0.00 | 0.00 | 0.00 | 82 | 1014.6 |
| 20260504191044 | 59 | 239 | 0.0 | 2.6 | 0.00 | 0.00 | 0.00 | 82 | 1014.7 |
| 20260504190547 | 59 | 274 | 0.9 | 3.5 | 0.00 | 0.00 | 0.00 | 82 | 1014.6 |
| 20260504190052 | 59 | 136 | 0.0 | 3.5 | 0.00 | 0.00 | 0.00 | 82 | 1014.6 |
| 20260504185543 | 58 | 171 | 0.9 | 2.6 | 0.00 | 0.01 | 0.00 | 82 | 1014.6 |
| 20260504185044 | 58 | 270 | 0.9 | 2.6 | 0.00 | 0.01 | 0.00 | 82 | 1014.6 |
| 20260504184549 | 58 | 0 | 0.0 | 2.6 | 0.00 | 0.01 | 0.00 | 82 | 1014.6 |
| 20260504184043 | 58 | 223 | 0.9 | 2.6 | 0.00 | 0.01 | 0.00 | 82 | 1014.6 |
| 20260504183540 | 58 | 217 | 0.0 | 2.6 | 0.00 | 0.01 | 0.00 | 82 | 1014.7 |
| 20260504183050 | 58 | 177 | 0.0 | 2.6 | 0.00 | 0.01 | 0.00 | 83 | 1014.6 |
| 20260504182541 | 58 | 214 | 0.9 | 2.6 | 0.00 | 0.01 | 0.00 | 82 | 1014.6 |
| 20260504182044 | 58 | 259 | 0.0 | 2.6 | 0.00 | 0.01 | 0.00 | 83 | 1014.4 |
| 20260504181558 | 58 | 0 | 0.9 | 2.6 | 0.00 | 0.01 | 0.00 | 82 | 1014.4 |
| 20260504181044 | 58 | 315 | 0.9 | 2.6 | 0.00 | 0.01 | 0.00 | 82 | 1014.3 |
| 20260504180543 | 58 | 169 | 0.0 | 1.7 | 0.00 | 0.01 | 0.00 | 82 | 1014.3 |
| 20260504180051 | 58 | 95 | 0.9 | 2.6 | 0.00 | 0.01 | 0.00 | 82 | 1014.4 |
| 20260504175543 | 57 | 0 | 0.9 | 2.6 | 0.00 | 0.01 | 0.00 | 82 | 1014.3 |
| 20260504175040 | 57 | 229 | 0.0 | 2.6 | 0.00 | 0.01 | 0.00 | 83 | 1014.2 |
| 20260504174556 | 57 | 219 | 0.0 | 2.6 | 0.00 | 0.01 | 0.00 | 83 | 1014.2 |
| 20260504174041 | 57 | 310 | 0.9 | 1.7 | 0.00 | 0.01 | 0.00 | 83 | 1014.3 |
| 20260504173541 | 57 | 242 | 0.0 | 1.7 | 0.00 | 0.01 | 0.00 | 83 | 1014.2 |
| 20260504173056 | 57 | 293 | 0.0 | 3.5 | 0.00 | 0.01 | 0.00 | 83 | 1014.3 |
| 20260504172547 | 57 | 242 | 0.0 | 3.5 | 0.00 | 0.01 | 0.00 | 84 | 1014.3 |
| 20260504172045 | 57 | 163 | 0.9 | 3.5 | 0.00 | 0.01 | 0.00 | 84 | 1014.3 |
| 20260504171554 | 57 | 229 | 0.0 | 1.7 | 0.00 | 0.01 | 0.00 | 84 | 1014.3 |
| 20260504171041 | 57 | 0 | 0.0 | 2.6 | 0.00 | 0.01 | 0.00 | 84 | 1014.2 |
| 20260504170541 | 56 | 0 | 0.9 | 2.6 | 0.00 | 0.01 | 0.00 | 84 | 1014.3 |
| 20260504151044 | 55 | 0 | 0.0 | 1.7 | 0.00 | 0.01 | 0.00 | 87 | 1014.0 |
| 20260504150545 | 54 | 0 | 0.0 | 1.7 | 0.00 | 0.01 | 0.00 | 88 | 1013.9 |
| 20260504141040 | 54 | 0 | 0.0 | 0.9 | 0.00 | 0.01 | 0.00 | 90 | 1013.5 |
| 20260504140544 | 53 | 0 | 0.0 | 0.9 | 0.00 | 0.01 | 0.00 | 90 | 1013.5 |
| 20260504130544 | 53 | 0 | 0.0 | 0.0 | 0.00 | 0.01 | 0.00 | 91 | 1013.0 |
| 20260504110540 | 53 | 211 | 0.0 | 4.3 | 0.00 | 0.01 | 0.00 | 89 | 1012.8 |
| 20260504100547 | 54 | 0 | 0.0 | 0.0 | 0.00 | 0.01 | 0.00 | 89 | 1012.6 |
| 20260504090105 | 54 | 0 | 0.0 | 0.9 | 0.00 | 0.01 | 0.00 | 89 | 1012.4 |
| 20260504081554 | 54 | 171 | 0.0 | 1.7 | 0.00 | 0.01 | 0.00 | 88 | 1012.3 |
| 20260504081042 | 54 | 0 | 0.0 | 1.7 | 0.00 | 0.01 | 0.00 | 88 | 1012.3 |
| 20260504080542 | 54 | 0 | 0.0 | 1.7 | 0.00 | 0.01 | 0.00 | 88 | 1012.4 |